Regional Weather Roundup
Issued by NWS Cleveland, OH

Home | Current Version | Previous Version | Text Only | Print | Product List | Glossary Off
Versions: 1 2 3 4 5 6 7 8 9 10 11 12 13 14 15 16 17 18 19 20 21 22 23 24 25 26 27 28 29 30 31 32 33 34 35 36 37 38 39 40 41 42 43 44 45 46 47 48 49 50

800
ASUS41 KCLE 280912
RWRCLE
OHIO REGIONAL WEATHER ROUNDUP
NATIONAL WEATHER SERVICE WILMINGTON, OH
400 AM EST TUE FEB 28 2017

NOTE: "FAIR" INDICATES FEW OR NO CLOUDS BELOW 12,000 FEET WITH NO
SIGNIFICANT WEATHER AND/OR OBSTRUCTIONS TO VISIBILITY.

OHZ001>008-015>018-024>027-034-035-043-044-281000-
   NORTHWEST OHIO

CITY           SKY/WX    TMP DP  RH WIND       PRES   REMARKS
DEFIANCE       MOCLDY    39  38  96 E6        30.09F
FINDLAY        FAIR      41  37  86 SE9       30.10F FOG
TOLEDO EXPRESS MOCLDY    38  38 100 E3        30.11F FOG
TOLEDO EXEC    FAIR      40  39  97 SE6       30.13F
LIMA           CLOUDY    43  40  89 S10       30.08F
$$

OHZ009>014-019>023-028>033-038-089-281000-
   NORTHEAST OHIO

CITY           SKY/WX    TMP DP  RH WIND       PRES   REMARKS
CLE-HOPKINS    MOCLDY    40  35  83 S7        30.19F
CLE-LAKEFRONT  FAIR      41  36  82 S14       30.16F
CUY CO. ARPT   NOT AVBL
LORAIN-ELYRIA  FAIR      38  34  85 S7        30.16F
ASHTABULA      FAIR      37  35  92 SE7       30.21F
AKRON-CANTON   FAIR      36  34  92 SE5       30.18F FOG
WOOSTER        FOG       33  32  96 SE3       30.17F VSB 1/4
MANSFIELD      MOCLDY    39  38  96 SE8       30.14F
YOUNGSTOWN     MOCLDY    36  34  92 E9        30.19F
$$

OHZ042-051>053-060>062-070>072-077>081-281000-
  SOUTHWEST OHIO

CITY           SKY/WX    TMP DP  RH WIND       PRES   REMARKS
CINC-COVINGTON CLOUDY    43  40  89 S8        30.09F
CINC-LUNKEN    FAIR      37  37 100 W5        30.13F
HAMILTON       FAIR      43  40  89 CALM      30.12F
DAYTON         CLOUDY    43  38  82 SE8       30.10F
WRIGHT-PAT AFB CLOUDY    44  39  85 S6        30.11F
DAYTON GENERAL FAIR      45  38  76 S9        30.09F
WILMINGTON     FAIR      41  37  86 S7        30.12F
$$

OHZ036-037-039>041-045>050-054>059-063>069-073>076-082>088-281000-
  CENTRAL AND SOUTHEAST OHIO

CITY           SKY/WX    TMP DP  RH WIND       PRES   REMARKS
COLUMBUS       CLOUDY    44  37  76 SE6       30.15S
OSU AIRPORT    FAIR      41  39  93 SE5       30.14F
BOLTON FIELD   FAIR      39  38  94 S6        30.14F
RICKENBACK AFB FAIR      37  36  99 CALM      30.15S
NEWARK         FAIR      33  32  96 NW3       30.17R FOG
MARION         FAIR      41  38  89 S9        30.13F
LANCASTER      FAIR      39  37  92 SE5       30.17F
ZANESVILLE     FAIR      33  31  92 E3        30.17F FOG
NEW PHILLY     CLOUDY    32  32 100 CALM      30.20F FOG
$$




USA.gov is the U.S. government's official web portal to all federal, state and local government web resources and services.